Vertical_Velocity
-0 2 2 5 6 7 -2 -7 1 1 7 5 8 5 -0 -5 7 1 18 5 3 -4 -5 -3 -4 16 3 -3 -5 -1 -2 2 2 2 2 -3 2 -1 2 0 1 3 2 2 1 0 -0 0 -1
1 2 3 7 1 5 -2 -1 3 5 5 3 3 4 1 -1 4 3 1 3 -4 -3 -2 5 -8 9 -2 5 1 -0 -2 3 1 1 2 -3 -1 3 1 -1 0 1 1 3 1 2 0 1 -0
-0 4 7 9 -5 -4 -4 1 3 2 1 -0 6 2 -5 2 -0 -3 -3 3 -5 0 -4 -3 -9 6 -3 -6 3 4 -1 3 4 -1 -2 -2 2 5 0 -2 1 2 0 11 1 -1 -0 0 -0
-1 5 11 -15 2 -5 -4 5 11 4 1 -1 1 1 -0 -4 -2 4 -2 8 -9 1 -3 0 1 19 15 1 -2 4 2 3 4 -1 -4 1 3 2 1 -2 -1 5 4 1 4 2 -2 1 1
2 9 -5 -4 -12 -9 -3 1 7 5 1 2 4 2 3 3 3 -2 2 2 15 -5 -6 -5 6 11 17 16 9 -5 2 5 3 1 -2 0 3 1 -1 -2 1 -0 2 5 2 6 0 -2 -0
8 6 -1 -3 -10 -3 -4 -10 3 6 6 1 0 2 4 3 3 -1 -5 -6 2 0 -3 -1 -11 5 18 6 -3 7 1 1 2 4 -1 1 2 1 -3 -2 1 1 10 -1 -1 -3 2 -2 -1
6 -7 -4 -13 -2 -3 -1 -5 -10 -4 -1 -2 -1 -1 0 3 6 1 1 0 -1 -2 -2 -0 3 -8 35 9 4 9 9 -1 1 6 2 1 1 2 0 -1 1 1 -3 2 -1 -0 3 0 1
5 -0 -1 -4 3 -3 1 11 5 4 4 4 1 -4 1 2 4 7 -2 -1 1 -2 -5 1 5 2 -12 5 6 3 2 7 -2 6 6 5 1 2 -2 -1 4 -1 -1 -2 15 5 1 -1 -1
7 2 3 1 0 -3 3 -2 6 6 2 0 -2 -3 1 -3 -0 4 6 0 2 2 -1 -2 1 1 -5 -4 8 2 10 -1 -3 4 4 5 1 -1 -1 -2 2 -0 0 -3 3 -3 1 2 1
6 4 4 -0 -3 -3 2 0 -6 3 -0 -3 -4 -5 3 -1 -1 1 1 4 1 1 2 -5 1 -0 -1 -13 16 5 4 3 -3 -2 1 -0 1 1 0 -3 -1 1 3 5 5 -1 -1 1 2
-1 -4 -5 -3 -3 -4 -5 -4 -5 0 -3 -3 -3 4 3 1 -2 1 2 5 3 1 1 3 -6 2 -1 -5 -11 6 11 4 9 2 0 -0 -2 1 -1 -4 1 0 0 -1 2 2 -3 -1 -1
-7 -2 -9 2 0 -7 -9 -3 -3 -2 -6 -5 -2 -3 8 7 -0 4 2 7 7 2 3 6 -1 -3 4 -4 -4 -2 2 11 14 11 2 0 5 -1 3 -1 4 0 2 -1 -1 1 -4 -1 -3
-10 -9 -10 -5 -1 5 -2 -2 -4 -1 -2 -1 1 -1 4 18 8 0 -5 6 4 3 4 5 4 1 2 2 5 -6 -2 0 0 -3 5 7 52 -2 3 -1 1 -3 0 3 1 6 -0 -2 -3
-3 -3 -18 -7 -4 1 -0 -2 4 -2 -5 7 4 0 -2 1 9 4 -3 5 1 -1 4 2 1 5 1 2 3 -2 -1 0 0 -2 0 -3 0 35 3 1 4 3 1 2 3 3 4 -2 -0
2 -3 -6 -9 -4 -3 -10 -8 -7 1 0 -2 4 6 2 5 6 8 5 -1 6 3 3 1 0 1 5 3 2 4 2 -2 -5 -5 0 -1 -6 -2 14 1 -2 4 -1 -1 3 -3 -2 -2 -0
-2 -6 -12 -9 -14 -16 -2 -7 1 -3 -2 -4 -5 0 2 -0 2 4 -2 3 2 4 7 1 0 -0 3 5 2 1 -1 -2 0 -3 -3 -1 2 -4 -7 31 5 -1 -1 -1 -0 3 -1 -1 -0
7 11 9 16 6 4 10 -4 -6 1 13 8 3 -0 -0 -1 -0 5 -2 -1 5 4 7 6 -1 1 -2 1 1 0 1 -0 -2 -0 -2 2 -2 4 -2 30 16 11 1 -4 -1 8 20 8 -2
-13 -2 -6 -10 3 -11 -2 4 1 -1 5 5 -1 2 -2 -1 -1 1 -2 -6 -2 7 7 5 2 -1 -1 -3 -1 1 1 2 3 2 1 3 0 1 0 -2 13 14 13 -2 1 8 5 2 3
-7 -8 -10 -12 -7 -6 -2 -9 -9 -3 -5 -3 -2 -1 2 -1 -1 -8 -11 -12 -2 4 2 6 1 1 2 -2 -4 0 1 5 -3 0 -1 2 8 3 8 0 5 4 13 1 3 3 65 -3 7
-4 -7 8 -8 3 -8 -10 -6 -11 -6 -2 -4 3 -1 -0 -3 -4 -7 -7 -8 -2 1 -2 2 3 2 2 2 -1 -3 4 -1 5 -5 -2 4 -0 2 3 3 -2 4 1 1 -2 4 4 -1 2
-7 -1 -6 -12 -17 -15 -14 -8 -6 -6 -2 -1 -2 0 3 -2 -3 -1 -6 -7 -7 -2 -4 -4 -2 5 2 3 -1 -1 -2 1 -5 3 0 -1 1 0 -3 0 2 6 -0 -1 -1 -1 3 10 8
-5 -1 -7 -2 -0 6 1 -1 -1 -5 -1 1 2 -1 0 -0 -3 -4 -5 -11 -8 -6 -1 -8 -9 3 3 2 0 -2 1 -1 3 6 3 -2 -1 1 -1 -0 0 4 2 2 -1 -8 1 9 6
0 -6 -2 -6 -4 -11 0 -2 -8 -3 -1 -4 -3 -1 -1 -3 -5 -6 -6 -7 -10 -8 -6 -5 -11 -2 8 4 -1 -2 1 -1 -2 7 3 1 0 1 -0 -0 2 -0 1 -1 2 1 -8 -0 1
9 -3 1 -4 -2 -0 -3 -9 -4 -7 -2 -2 -2 -3 -1 -2 -3 -2 -4 -1 -3 -2 -1 -4 -8 -6 4 7 1 -0 -1 -0 0 -2 0 0 1 1 1 1 1 -2 -0 2 -0 6 -6 -3 -2
-1 4 0 6 -5 -9 -6 -10 -8 2 -3 1 -5 -0 0 -3 -2 -4 -2 0 -1 0 0 -2 -5 -7 -1 2 4 -0 -1 0 2 1 -2 -1 3 -2 1 -1 1 -2 -0 -2 2 3 0 -7 2
-10 -4 0 -6 -1 1 -1 -6 1 -3 -2 -9 -2 -4 -3 -3 -0 -1 -3 -1 -1 -2 -2 -3 -4 -6 -2 -4 -1 4 -2 -1 1 3 1 -2 -1 -1 -1 -0 -0 -2 -1 0 -2 4 5 -7 0
-3 -11 -9 -2 0 -9 -4 -5 5 -1 -3 -1 -4 -4 -2 2 -0 1 -1 -1 -3 -1 -1 -4 -2 -5 -2 -3 -5 1 0 -3 1 -1 2 -0 -2 -1 -1 -2 1 2 -3 1 2 1 3 2 -3
3 -1 -6 2 -14 -2 5 -3 -2 -1 0 -2 1 -5 -3 -1 0 -2 -1 -1 -1 -2 -3 -2 -5 -1 -3 -2 -5 -4 3 -2 -2 1 3 2 -2 -1 -2 -1 -0 0 -0 2 -2 4 2 1 0
-8 -7 0 3 -6 -9 -14 2 3 1 -1 1 -3 -2 3 3 1 0 -2 -1 1 -2 -2 -2 -4 1 -2 -6 -3 -3 -4 2 -1 -0 5 3 1 -2 -1 0 -4 -1 -1 0 -1 3 -2 3 0
-4 0 3 -9 -8 -7 -3 -7 -5 -2 -5 -1 -4 6 4 0 -1 1 0 -0 1 -1 -2 -1 -2 -1 -0 -6 -4 -1 -0 -3 -1 -3 2 7 1 -0 -3 -4 -1 2 -2 -2 -0 -1 4 1 -0
Height
5821 5821 5821 5822 5825 5826 5826 5828 5827 5828 5830 5828 5830 5833 5832 5832 5834 5835 5838 5838 5840 5838 5836 5835 5832 5834 5836 5839 5843 5842 5843 5842 5843 5843 5845 5846 5845 5846 5846 5846 5845 5846 5846 5847 5848 5850 5852 5854 5856
5818 5818 5818 5817 5819 5820 5821 5824 5823 5824 5824 5823 5826 5828 5828 5831 5833 5832 5831 5833 5837 5838 5835 5833 5834 5828 5834 5838 5838 5839 5842 5840 5840 5842 5843 5843 5843 5844 5845 5844 5843 5844 5846 5846 5848 5849 5851 5854 5856
5816 5815 5815 5812 5813 5814 5817 5819 5819 5819 5820 5820 5823 5825 5828 5828 5828 5828 5826 5829 5829 5830 5832 5830 5827 5829 5829 5832 5836 5837 5839 5839 5841 5842 5842 5839 5840 5842 5843 5842 5842 5843 5844 5845 5846 5849 5850 5853 5855
5814 5813 5810 5805 5809 5811 5812 5814 5815 5815 5817 5818 5818 5821 5823 5824 5825 5823 5820 5822 5823 5822 5826 5830 5827 5827 5824 5824 5828 5833 5836 5838 5839 5841 5840 5837 5837 5839 5840 5840 5840 5841 5844 5844 5844 5846 5849 5852 5855
5811 5807 5803 5806 5808 5807 5807 5808 5810 5811 5813 5814 5815 5815 5817 5817 5818 5817 5815 5815 5815 5816 5819 5824 5822 5821 5821 5821 5822 5828 5832 5836 5837 5837 5836 5836 5837 5837 5837 5838 5838 5839 5840 5842 5841 5843 5848 5851 5853
5807 5804 5800 5805 5806 5807 5806 5806 5806 5807 5807 5807 5807 5808 5811 5811 5811 5811 5810 5810 5810 5812 5814 5815 5817 5819 5818 5818 5821 5822 5826 5829 5831 5832 5832 5834 5834 5834 5835 5834 5836 5837 5837 5837 5837 5839 5845 5849 5852
5802 5800 5800 5801 5804 5803 5803 5802 5803 5801 5800 5800 5800 5800 5802 5802 5802 5803 5803 5803 5806 5805 5807 5808 5810 5811 5813 5815 5816 5817 5819 5822 5825 5827 5829 5830 5832 5831 5832 5833 5834 5834 5834 5833 5836 5838 5841 5845 5850
5800 5799 5797 5797 5799 5799 5797 5795 5795 5794 5793 5791 5791 5792 5794 5792 5793 5795 5794 5796 5798 5799 5801 5802 5803 5804 5804 5809 5813 5813 5814 5816 5819 5822 5825 5826 5828 5828 5829 5830 5831 5831 5832 5831 5833 5836 5839 5846 5850
5798 5798 5797 5795 5796 5795 5793 5789 5788 5789 5788 5785 5784 5785 5786 5784 5784 5783 5787 5787 5788 5791 5794 5796 5797 5798 5800 5803 5807 5808 5810 5813 5815 5818 5822 5822 5824 5825 5826 5828 5828 5829 5830 5832 5833 5835 5840 5845 5849
5796 5795 5793 5793 5790 5789 5785 5782 5778 5778 5776 5776 5774 5775 5776 5775 5774 5773 5776 5779 5780 5781 5784 5789 5788 5790 5793 5795 5801 5804 5803 5807 5810 5814 5815 5818 5820 5822 5822 5824 5826 5827 5829 5832 5835 5836 5838 5844 5849
5791 5789 5788 5786 5784 5780 5775 5771 5768 5766 5766 5766 5765 5764 5765 5766 5766 5764 5764 5769 5771 5773 5776 5780 5781 5782 5786 5789 5790 5797 5800 5801 5803 5807 5810 5814 5817 5818 5819 5822 5823 5824 5826 5830 5833 5835 5837 5841 5846
5785 5783 5782 5780 5777 5772 5767 5761 5757 5755 5752 5752 5754 5753 5754 5755 5755 5755 5753 5756 5760 5762 5766 5770 5773 5777 5779 5782 5785 5789 5794 5795 5797 5800 5806 5808 5812 5815 5815 5818 5820 5822 5822 5825 5828 5831 5834 5838 5842
5780 5777 5777 5773 5768 5760 5756 5751 5747 5742 5739 5738 5739 5741 5740 5741 5740 5739 5739 5742 5745 5751 5754 5758 5764 5766 5771 5774 5776 5780 5787 5790 5792 5796 5798 5805 5806 5807 5809 5812 5815 5817 5819 5823 5824 5827 5830 5834 5839
5774 5769 5764 5762 5756 5747 5740 5736 5734 5729 5723 5722 5722 5722 5722 5721 5723 5724 5724 5727 5731 5736 5741 5746 5751 5757 5761 5765 5768 5773 5779 5783 5784 5789 5792 5798 5802 5799 5804 5807 5810 5814 5815 5817 5820 5822 5825 5829 5834
5773 5764 5756 5751 5741 5730 5722 5719 5714 5710 5707 5704 5702 5705 5704 5704 5705 5708 5708 5711 5716 5721 5726 5731 5737 5744 5750 5755 5759 5763 5768 5773 5777 5781 5785 5792 5797 5797 5799 5800 5804 5808 5810 5812 5815 5817 5820 5824 5830
5770 5763 5756 5745 5734 5721 5712 5701 5696 5691 5686 5683 5685 5686 5688 5688 5686 5687 5688 5693 5699 5705 5711 5716 5721 5728 5736 5743 5748 5753 5758 5763 5767 5772 5778 5784 5789 5792 5793 5794 5799 5802 5804 5807 5811 5814 5814 5820 5826
5766 5758 5747 5736 5721 5710 5701 5691 5683 5675 5672 5670 5668 5668 5667 5667 5668 5666 5666 5672 5680 5688 5694 5701 5705 5713 5721 5728 5735 5741 5747 5752 5756 5762 5770 5775 5780 5784 5788 5787 5791 5794 5797 5800 5806 5808 5811 5816 5820
5760 5753 5743 5732 5719 5700 5689 5676 5665 5660 5654 5649 5648 5649 5648 5648 5649 5648 5647 5650 5659 5668 5676 5683 5689 5697 5706 5713 5721 5729 5736 5742 5746 5752 5761 5767 5771 5776 5781 5783 5784 5788 5791 5793 5798 5803 5805 5809 5813
5756 5746 5736 5724 5710 5695 5676 5666 5656 5647 5644 5638 5634 5634 5634 5632 5628 5628 5631 5635 5639 5645 5653 5663 5672 5680 5690 5699 5707 5715 5723 5731 5736 5741 5749 5757 5762 5767 5772 5775 5778 5782 5782 5786 5790 5796 5794 5801 5806
5748 5739 5730 5717 5705 5689 5674 5661 5651 5640 5635 5634 5630 5627 5625 5624 5620 5617 5615 5616 5618 5621 5628 5639 5652 5662 5673 5684 5692 5701 5710 5718 5726 5733 5738 5744 5750 5756 5762 5766 5770 5775 5778 5782 5784 5788 5793 5797 5802
5743 5734 5723 5711 5697 5684 5667 5656 5647 5638 5629 5623 5622 5618 5616 5613 5610 5606 5602 5600 5601 5602 5606 5614 5629 5644 5656 5668 5676 5686 5695 5703 5713 5720 5726 5733 5741 5747 5753 5758 5763 5766 5771 5775 5778 5782 5786 5790 5796
5740 5729 5718 5707 5694 5681 5669 5659 5648 5636 5629 5621 5612 5607 5603 5600 5596 5592 5590 5587 5587 5588 5588 5593 5606 5624 5638 5650 5660 5669 5679 5688 5697 5705 5713 5722 5731 5738 5744 5750 5755 5759 5762 5768 5773 5775 5779 5783 5783
5737 5726 5715 5703 5692 5682 5670 5661 5647 5635 5625 5616 5607 5599 5593 5587 5584 5580 5575 5572 5571 5573 5574 5577 5585 5603 5619 5631 5642 5653 5663 5672 5682 5690 5700 5710 5719 5727 5734 5741 5747 5752 5756 5761 5766 5769 5772 5775 5779
5733 5723 5712 5703 5693 5683 5670 5656 5643 5632 5623 5613 5603 5594 5586 5579 5575 5571 5565 5561 5560 5561 5562 5564 5569 5579 5596 5612 5625 5636 5648 5657 5667 5677 5688 5697 5706 5715 5723 5731 5737 5743 5748 5754 5758 5763 5764 5769 5772
5732 5723 5714 5705 5692 5678 5665 5653 5639 5630 5621 5611 5599 5589 5581 5572 5567 5563 5560 5556 5553 5552 5552 5553 5555 5561 5574 5589 5606 5618 5630 5642 5651 5661 5672 5684 5694 5701 5710 5719 5727 5733 5738 5745 5750 5755 5758 5762 5765
5729 5718 5706 5696 5685 5676 5665 5652 5640 5629 5619 5606 5595 5584 5574 5567 5561 5556 5553 5550 5546 5544 5543 5544 5545 5548 5556 5568 5584 5601 5612 5626 5637 5646 5657 5668 5680 5689 5697 5706 5715 5722 5729 5735 5741 5746 5753 5755 5758
5726 5716 5704 5692 5683 5673 5660 5651 5641 5628 5615 5605 5594 5584 5574 5565 5558 5552 5547 5543 5540 5537 5534 5534 5537 5539 5544 5552 5564 5580 5595 5608 5620 5632 5643 5654 5665 5676 5685 5693 5701 5710 5718 5725 5732 5737 5743 5749 5753
5725 5715 5703 5692 5679 5669 5663 5650 5639 5627 5617 5605 5596 5585 5572 5562 5554 5548 5542 5537 5533 5530 5527 5524 5526 5531 5535 5540 5548 5561 5578 5592 5604 5617 5628 5639 5651 5662 5672 5681 5689 5696 5705 5715 5721 5728 5733 5740 5746
5723 5714 5703 5694 5682 5670 5656 5650 5639 5628 5616 5604 5592 5580 5570 5561 5551 5543 5537 5532 5527 5523 5519 5516 5516 5522 5527 5532 5537 5547 5560 5578 5589 5601 5613 5624 5635 5647 5657 5667 5676 5686 5693 5701 5710 5718 5723 5730 5736
5722 5712 5704 5692 5682 5670 5660 5650 5640 5629 5617 5606 5594 5584 5574 5563 5550 5539 5532 5527 5522 5515 5510 5507 5508 5513 5521 5527 5531 5537 5547 5560 5575 5587 5598 5610 5620 5632 5643 5653 5664 5674 5681 5689 5697 5706 5713 5718 5726